TimeEDT,TemperatureF,Dew PointF,Humidity,Sea Level PressureIn,VisibilityMPH,Wind Direction,Wind SpeedMPH,Gust SpeedMPH,PrecipitationIn,Events,Conditions,WindDirDegrees,DateUTC
12:15 AM,66.2,62.6,88,30.13,10.0,South,3.5,-,N/A,,Overcast,180,2013-09-19 04:15:00
12:35 AM,68.0,62.6,83,30.13,10.0,South,5.8,-,N/A,,Overcast,180,2013-09-19 04:35:00
12:55 AM,68.0,62.6,83,30.12,10.0,South,5.8,-,N/A,,Overcast,180,2013-09-19 04:55:00
1:15 AM,66.2,62.6,88,30.12,10.0,South,5.8,-,N/A,,Mostly Cloudy,170,2013-09-19 05:15:00
1:35 AM,66.2,62.6,88,30.13,10.0,South,4.6,-,N/A,,Overcast,170,2013-09-19 05:35:00
1:55 AM,66.2,62.6,88,30.13,10.0,South,3.5,-,N/A,,Mostly Cloudy,170,2013-09-19 05:55:00
2:15 AM,66.2,62.6,88,30.13,10.0,South,4.6,-,N/A,,Overcast,180,2013-09-19 06:15:00
2:35 AM,66.2,62.6,88,30.12,10.0,South,5.8,-,N/A,,Overcast,180,2013-09-19 06:35:00
2:55 AM,66.2,62.6,88,30.11,10.0,South,5.8,-,N/A,,Mostly Cloudy,180,2013-09-19 06:55:00
3:15 AM,66.2,60.8,83,30.12,10.0,South,5.8,-,N/A,,Scattered Clouds,180,2013-09-19 07:15:00
3:35 AM,66.2,60.8,83,30.12,10.0,SSW,4.6,-,N/A,,Mostly Cloudy,200,2013-09-19 07:35:00
3:55 AM,66.2,60.8,83,30.11,10.0,South,8.1,-,N/A,,Overcast,190,2013-09-19 07:55:00
4:15 AM,64.4,60.8,88,30.11,10.0,South,6.9,-,N/A,,Scattered Clouds,190,2013-09-19 08:15:00
4:35 AM,66.2,60.8,83,30.12,10.0,SSW,4.6,-,N/A,,Mostly Cloudy,200,2013-09-19 08:35:00
4:55 AM,66.2,60.8,83,30.11,10.0,SSW,4.6,-,N/A,,Overcast,200,2013-09-19 08:55:00
5:15 AM,66.2,60.8,83,30.11,10.0,SSW,4.6,-,N/A,,Overcast,200,2013-09-19 09:15:00
5:35 AM,66.2,60.8,83,30.11,10.0,SSW,5.8,-,N/A,,Scattered Clouds,210,2013-09-19 09:35:00
5:55 AM,64.4,60.8,88,30.11,10.0,SW,6.9,-,N/A,,Mostly Cloudy,220,2013-09-19 09:55:00
6:15 AM,64.4,60.8,88,30.11,10.0,SSW,4.6,-,N/A,,Mostly Cloudy,210,2013-09-19 10:15:00
6:35 AM,64.4,60.8,88,30.12,10.0,SSW,3.5,-,N/A,,Mostly Cloudy,210,2013-09-19 10:35:00
6:55 AM,64.4,60.8,88,30.13,10.0,SSW,4.6,-,N/A,,Overcast,200,2013-09-19 10:55:00
7:15 AM,64.4,60.8,88,30.13,10.0,SSW,3.5,-,N/A,,Overcast,210,2013-09-19 11:15:00
7:35 AM,64.4,60.8,88,30.14,10.0,SSW,3.5,-,N/A,,Overcast,200,2013-09-19 11:35:00
7:55 AM,64.4,60.8,88,30.14,10.0,SSW,4.6,-,N/A,,Overcast,210,2013-09-19 11:55:00
8:15 AM,64.4,60.8,88,30.14,10.0,SSW,4.6,-,N/A,,Overcast,210,2013-09-19 12:15:00
8:35 AM,66.2,60.8,83,30.15,10.0,SSW,5.8,-,N/A,,Overcast,210,2013-09-19 12:35:00
8:55 AM,66.2,60.8,83,30.14,10.0,SSW,8.1,-,N/A,,Scattered Clouds,210,2013-09-19 12:55:00
9:15 AM,68.0,62.6,83,30.15,10.0,SW,9.2,-,N/A,,Clear,220,2013-09-19 13:15:00
9:35 AM,69.8,62.6,78,30.15,10.0,SW,10.4,-,N/A,,Clear,230,2013-09-19 13:35:00
9:55 AM,69.8,62.6,78,30.15,10.0,SW,10.4,-,N/A,,Clear,220,2013-09-19 13:55:00
10:15 AM,71.6,62.6,73,30.16,10.0,SW,9.2,-,N/A,,Mostly Cloudy,230,2013-09-19 14:15:00
10:35 AM,71.6,62.6,73,30.16,7.0,SW,9.2,-,N/A,,Overcast,230,2013-09-19 14:35:00
10:55 AM,71.6,62.6,73,30.16,7.0,WSW,9.2,-,N/A,,Overcast,240,2013-09-19 14:55:00
11:15 AM,71.6,62.6,73,30.16,7.0,WSW,5.8,-,N/A,,Overcast,240,2013-09-19 15:15:00
11:35 AM,73.4,64.4,73,30.17,7.0,WSW,8.1,-,N/A,,Overcast,240,2013-09-19 15:35:00
11:55 AM,75.2,64.4,69,30.16,10.0,SW,5.8,-,N/A,,Overcast,220,2013-09-19 15:55:00
12:15 PM,75.2,64.4,69,30.16,7.0,West,9.2,-,N/A,,Scattered Clouds,260,2013-09-19 16:15:00
12:35 PM,75.2,64.4,69,30.15,10.0,West,8.1,-,N/A,,Scattered Clouds,260,2013-09-19 16:35:00
12:55 PM,77.0,64.4,65,30.15,10.0,WSW,6.9,-,N/A,,Mostly Cloudy,240,2013-09-19 16:55:00
1:15 PM,75.2,64.4,69,30.14,10.0,West,8.1,-,N/A,,Overcast,280,2013-09-19 17:15:00
1:35 PM,75.2,64.4,69,30.13,10.0,West,6.9,-,N/A,,Overcast,280,2013-09-19 17:35:00
1:55 PM,75.2,68.0,78,30.13,10.0,West,6.9,-,N/A,,Overcast,270,2013-09-19 17:55:00
2:15 PM,77.0,66.2,69,30.12,10.0,West,8.1,-,N/A,,Scattered Clouds,270,2013-09-19 18:15:00
2:35 PM,78.8,66.2,65,30.12,10.0,West,5.8,-,N/A,,Clear,270,2013-09-19 18:35:00
2:55 PM,78.8,66.2,65,30.11,10.0,West,6.9,-,N/A,,Scattered Clouds,280,2013-09-19 18:55:00
3:15 PM,78.8,66.2,65,30.10,10.0,West,4.6,-,N/A,,Scattered Clouds,280,2013-09-19 19:15:00
3:35 PM,77.0,66.2,69,30.10,10.0,WSW,4.6,-,N/A,,Scattered Clouds,250,2013-09-19 19:35:00
3:55 PM,77.0,66.2,69,30.09,10.0,West,3.5,-,N/A,,Scattered Clouds,260,2013-09-19 19:55:00
4:15 PM,78.8,66.2,65,30.08,10.0,SW,4.6,-,N/A,,Scattered Clouds,230,2013-09-19 20:15:00
4:35 PM,78.8,66.2,65,30.07,10.0,SW,5.8,-,N/A,,Scattered Clouds,220,2013-09-19 20:35:00
4:55 PM,78.8,68.0,69,30.07,10.0,WSW,4.6,-,N/A,,Mostly Cloudy,240,2013-09-19 20:55:00
5:15 PM,78.8,66.2,65,30.07,10.0,West,3.5,-,N/A,,Scattered Clouds,260,2013-09-19 21:15:00
5:35 PM,78.8,68.0,69,30.08,10.0,West,3.5,-,N/A,,Clear,260,2013-09-19 21:35:00
5:55 PM,78.8,68.0,69,30.08,7.0,Calm,Calm,-,N/A,,Clear,0,2013-09-19 21:55:00
6:15 PM,78.8,68.0,69,30.07,10.0,Calm,Calm,-,N/A,,Clear,0,2013-09-19 22:15:00
6:35 PM,78.8,66.2,65,30.07,10.0,Calm,Calm,-,N/A,,Clear,0,2013-09-19 22:35:00
6:55 PM,77.0,68.0,74,30.06,10.0,South,3.5,-,N/A,,Clear,180,2013-09-19 22:55:00
7:15 PM,77.0,68.0,74,30.06,10.0,Calm,Calm,-,N/A,,Scattered Clouds,0,2013-09-19 23:15:00
7:35 PM,77.0,68.0,74,30.06,10.0,SSE,3.5,-,N/A,,Clear,160,2013-09-19 23:35:00
7:55 PM,75.2,68.0,78,30.05,7.0,SSE,4.6,-,N/A,,Clear,150,2013-09-19 23:55:00
8:15 PM,73.4,68.0,83,30.05,10.0,SSE,3.5,-,N/A,,Clear,150,2013-09-20 00:15:00
8:35 PM,71.6,68.0,88,30.06,10.0,SE,3.5,-,N/A,,Clear,130,2013-09-20 00:35:00
8:55 PM,71.6,68.0,88,30.06,7.0,SE,3.5,-,N/A,,Clear,140,2013-09-20 00:55:00
9:15 PM,71.6,68.0,88,30.06,7.0,SSE,3.5,-,N/A,,Clear,160,2013-09-20 01:15:00
9:35 PM,71.6,68.0,88,30.06,7.0,SSE,3.5,-,N/A,,Clear,160,2013-09-20 01:35:00
9:55 PM,71.6,68.0,88,30.05,10.0,South,3.5,-,N/A,,Clear,170,2013-09-20 01:55:00
10:15 PM,71.6,68.0,88,30.05,10.0,South,4.6,-,N/A,,Clear,170,2013-09-20 02:15:00
10:35 PM,71.6,66.2,83,30.05,10.0,South,4.6,-,N/A,,Clear,190,2013-09-20 02:35:00
10:55 PM,71.6,66.2,83,30.05,10.0,South,5.8,-,N/A,,Clear,190,2013-09-20 02:55:00
11:15 PM,71.6,66.2,83,30.05,7.0,South,4.6,-,N/A,,Clear,190,2013-09-20 03:15:00
11:35 PM,69.8,66.2,88,30.05,10.0,SSW,4.6,-,N/A,,Clear,200,2013-09-20 03:35:00
11:55 PM,69.8,66.2,88,30.06,7.0,SSW,5.8,-,N/A,,Clear,200,2013-09-20 03:55:00